Regional Weather Roundup
Issued by NWS Little Rock, AR

Home | Current Version | Previous Version | Text Only | Print | Product List | Glossary Off
Versions: 1 2 3 4 5 6 7 8 9 10 11 12 13 14 15 16 17 18 19 20 21 22 23 24 25 26 27 28 29 30 31 32 33 34 35 36 37 38 39 40 41 42 43 44 45 46 47 48 49 50

000
ASUS44 KLZK 281005
RWRLZK

WEATHER ROUNDUP FOR ARKANSAS
NATIONAL WEATHER SERVICE LITTLE ROCK AR
500 AM CDT TUE APR 28 2015

NOTE: "FAIR" INDICATES FEW OR NO CLOUDS BELOW 12,000 FEET WITH NO
SIGNIFICANT WEATHER AND/OR OBSTRUCTIONS TO VISIBILITY.

ARZ001-003-010-029-281100-
NORTHWEST ARKANSAS

CITY           SKY/WX    TMP DP  RH WIND       PRES   REMARKS
FAYETTEVILLE   CLOUDY    50  45  83 CALM      30.05S
FORT SMITH     RAIN      53  49  86 NE7       30.03S
HARRISON       CLOUDY    47  38  71 CALM      30.07R
BENTONVILLE    CLOUDY   N/A N/A N/A CALM      30.06S
ROGERS         CLOUDY    50  37  61 NE7       30.07R
SILOAM SPGS    CLOUDY   N/A N/A N/A NE7       30.06S
HIGHFILL       CLOUDY    50  40  68 NE3       30.05S
$$

ARZ004-005-016-281100-
NORTH CENTRAL ARKANSAS

CITY           SKY/WX    TMP DP  RH WIND       PRES   REMARKS
BATESVILLE     CLOUDY    52  39  62 CALM      30.04S
FLIPPIN        CLOUDY    48  37  66 N5        30.05S
MTN HOME       CLOUDY    48  37  65 CALM      30.05R
$$

ARZ040-041-281100-
WEST CENTRAL ARKANSAS

CITY           SKY/WX    TMP DP  RH WIND       PRES   REMARKS
MENA           CLOUDY    54  50  87 NE6       29.96F
MOUNT IDA      LGT RAIN  51  48  89 CALM      29.97S
$$

ARZ009-017-025-026-028-281100-
NORTHEAST ARKANSAS

CITY           SKY/WX    TMP DP  RH WIND       PRES   REMARKS
CORNING          N/A     48  41  76 NE10      30.04R
JONESBORO      CLOUDY    51  42  71 NE8       30.02R
NEWPORT        CLOUDY    51  45  80 N9        30.05R
WALNUT RIDGE   CLOUDY    48  39  71 NE5       30.04R
BLYTHEVILLE    CLOUDY    52  42  69 NE9       30.01S
$$

ARZ022-023-033-042-044-281100-
CENTRAL ARKANSAS

CITY           SKY/WX    TMP DP  RH WIND       PRES   REMARKS
LITTLE ROCK    CLOUDY    56  43  61 N7        30.00F
N LITTLE ROCK    N/A     54  46  76 N7        30.00F
JACKSONVILLE   CLOUDY    55  43  64 N6        30.00F
SEARCY         CLOUDY    55  43  63 N8        30.03F
HOT SPRINGS    LGT RAIN  54  45  71 NE12      29.97F
RUSSELLVILLE   CLOUDY    56  42  59 NE7       30.01F
CLINTON        FAIR      54  43  66 CALM      30.05F
$$

ARZ036-281100-
EAST ARKANSAS

CITY           SKY/WX    TMP DP  RH WIND       PRES   REMARKS
WEST MEMPHIS   CLOUDY    53  43  68 NE8       29.98R
$$

ARZ050-053-066-070-073-281100-
SOUTHWEST ARKANSAS

CITY           SKY/WX    TMP DP  RH WIND       PRES   REMARKS
ARKADELPHIA    LGT RAIN  54  51  89 VRB3      29.98R
CAMDEN         HVY RAIN  50  48  93 N6        29.96R
TEXARKANA      LGT RAIN  52  48  86 NE9G22    29.91S
EL DORADO      LGT RAIN  51  49  92 NE13      29.92F
DE QUEEN       CLOUDY    53  49  86 CALM      29.95R
$$

ARZ056-057-069-281100-
SOUTHEAST ARKANSAS

CITY           SKY/WX    TMP DP  RH WIND       PRES   REMARKS
PINE BLUFF     CLOUDY    56  44  64 N13       29.97S
STUTTGART      CLOUDY    55  43  62 N10       29.99S
MONTICELLO     CLOUDY    57  44  62 VRB6      29.93S

$$





USA.gov is the U.S. government's official web portal to all federal, state and local government web resources and services.